Location: Melque
(41.0517°N, 4.4694°W)
Time: 07:36:30
(UTC+00:00)

EXPRESS MD2 - Visible Passes

Search period start: 11 March 2026 00:00
Search period end: 21 March 2026 00:00
Orbit: 258 x 2784 km, 49.8° (Epoch: 10 March)

Date Brightness Start Highest point End Pass type
(mag) Time Alt. Az. Time Alt. Az. Time Alt. Az.
11 Mar 7.9 01:33:38 10° WNW 01:36:40 16° WNW 01:36:40 16° WNW visible
11 Mar 7.0 18:31:11 10° W 18:45:36 69° NNW 19:02:26 10° ENE visible
11 Mar 6.9 20:36:16 10° WNW 20:52:37 64° N 21:00:57 35° ENE visible
11 Mar 6.4 22:41:32 10° WNW 22:57:23 80° NW 22:57:23 80° NW visible
12 Mar 7.6 00:47:06 10° WNW 00:53:48 26° WNW 00:53:48 26° WNW visible
12 Mar 7.0 19:50:23 10° WNW 20:06:10 62° N 20:18:03 22° ENE visible
12 Mar 6.4 21:55:35 10° WNW 22:12:43 80° NNE 22:14:29 74° E visible
13 Mar 7.1 00:00:48 10° WNW 00:10:54 40° W 00:10:54 40° W visible
13 Mar 7.0 19:04:33 10° W 19:19:37 62° N 19:35:07 12° ENE visible
13 Mar 6.6 21:09:37 10° WNW 21:26:29 73° NNE 21:31:32 52° E visible
13 Mar 6.7 23:14:36 10° WNW 23:27:57 57° W 23:27:57 57° W visible
14 Mar 8.0 01:21:43 10° WNW 01:24:23 14° WNW 01:24:23 14° WNW visible
14 Mar 6.8 20:23:38 10° WNW 20:40:02 68° NNE 20:48:33 35° E visible
14 Mar 6.4 22:28:28 10° WNW 22:44:58 77° SW 22:44:58 77° SW visible
15 Mar 7.6 00:34:27 10° WNW 00:41:23 24° W 00:41:23 24° W visible
15 Mar 6.9 19:37:39 10° WNW 19:53:24 64° N 20:05:31 22° E visible
15 Mar 6.3 21:42:23 10° WNW 21:59:25 88° SW 22:01:56 71° SE visible
15 Mar 7.2 23:47:39 10° WNW 23:58:21 36° W 23:58:21 36° W visible
16 Mar 7.0 18:51:39 10° WNW 19:06:39 62° N 19:22:28 11° E visible
16 Mar 6.5 20:56:17 10° WNW 21:13:07 82° NNE 21:18:53 50° ESE visible
16 Mar 6.8 23:01:07 10° WNW 23:15:17 50° WSW 23:15:17 50° WSW visible
17 Mar 8.1 01:10:27 10° W 01:11:42 11° W 01:11:42 11° W visible
17 Mar 6.7 20:10:11 10° WNW 20:26:34 75° NNE 20:35:49 33° ESE visible
17 Mar 6.5 22:14:43 10° WNW 22:31:11 63° SW 22:32:13 63° SSW visible
18 Mar 7.8 00:21:40 10° WNW 00:28:38 20° W 00:28:38 20° W visible
18 Mar 6.9 19:24:05 10° WNW 19:39:49 69° NNE 19:52:43 20° E visible
18 Mar 6.4 21:28:25 10° WNW 21:45:10 75° SW 21:49:07 58° SSE visible
18 Mar 7.4 23:34:07 10° WNW 23:45:32 30° WSW 23:45:32 30° WSW visible
19 Mar 7.0 18:37:59 10° WNW 18:52:55 65° NNE 19:09:21 10° E visible
19 Mar 6.6 20:42:10 10° WNW 20:58:50 86° SW 21:06:01 43° SE visible
19 Mar 7.0 22:47:06 10° WNW 23:01:45 40° WSW 23:02:26 40° SW visible
20 Mar 6.7 19:55:56 10° WNW 20:12:13 84° NNE 20:22:54 28° ESE visible
20 Mar 6.8 22:00:21 10° WNW 22:16:02 51° SW 22:19:19 46° SSW visible
